NOAA 16 DEB, 42401

Orbit data source: Space-Track

NOAA 16 DEB, 42401 is space debris in SSO originally from a launch on Thu, 21 Sep 2000 UTC launched from the Air Force Western Test Range (AFWTR). Debris objects in space refer to the collection of defunct objects orbiting the Earth. Examples of debris include non-operational satellites, rocket bodies, and fragments generated from explosions, collisions, or faulty payload assembly.

Loading next visibility...
Identifier
42401, 2000-055SV
Orbit
SSO
Country
Flag of USUS
Related business
Manufacturer
Unknown
Mission
Spacecraft
Bus & Motor
Unknown
Mass
Unknown
Launch date (UTC)
2000-09-21 (25 years ago)
Launch vehicle
Unknown
Launch site
Air Force Western Test Range (AFWTR)
Object type
Payload
Rocket body
Debris
Shape & HBR
Unknown shape, 0.1 m
Radar Cross Section
Small (<0.1 m²)

Expand to show TLE details & history
Last TLE update: 1 day ago

TLE from 1 day ago
0 NOAA 16 DEB
1 42401U 00055SV  25289.84516656  .00012949  00000-0  29896-2 0  9999
2 42401  98.9639 143.9730 0047759  61.5031 299.0962 14.54667200502988
Epoch: 2025-10-16T20:17Z
TLE epoch observation values (Epoch: 2025-10-16T20:17:02.390Z)
Latitude
0.00002°
Longitude
174.11399°
Altitude
697.057 km
Speed
7.516 km/s
True Right ascension
09h 35m 53s
True Declination
0° 00' 00"
Sunlit
Object was in daylight at epoch
Visualization orbit readout
Latitude
Unknown
Longitude
Unknown
Altitude
Unknown
Speed
Unknown
Apparent Right ascension
Unknown
Apparent Declination
Unknown
Sunlit
N/A
Visualization observer readout
Local Sidereal Time
01:35:35
Azimuth
Unknown
Elevation
Unknown
Doppler factor
Unknown
Orbital elements
Apogee altitude
741.411 km
Perigee altitude
673.73 km
Semi-major axis
7,085.708 km
Eccentricity
0.00478
Inclination
98.9639°
RAAN
143.973°
Arg. of periapsis
61.5031°
True anomaly
298.6166°
Mean anomaly
299.0962°
Eccentric anomaly
298.85654°
Mean motion
3.63889 °/min
Orbital period
98.93 mins
BSTAR
0.0029896
Loading maneuver chart data...
Computing Atmospheric mass density...

Documentation

Showing up to 5 results
|